PROFILE

 METAR AND TAF INFORMATION
ADDS - METARS form results

(1212 UTC 26 March 2019)
http://aviationweather.gov/metar/data/
 
LFMN 261200Z 06010KT 9999 FEW033 SCT200 17/M05 Q1017 NOSIG
LFMN 261134Z 06013KT 9999 FEW026 BKN200 17/M06 Q1017 NOSIG
TAF LFMN 260800Z 2609/2715 08025G40KT 9999 NSC BECMG 2617/2619 34010KT BECMG 2710/2712 18010KT 

 AIRPORT MAP

 RUNWAY INFORMATION
Runway 04L Runway length 8995 ft Runway width 148 ft
Runway elevation 10 ft Runway displaced threshold 0 ft Runway heading 45
Runway 22R Runway length 8995 ft Runway width 148 ft
Runway elevation 10 ft Runway displaced threshold 575 ft Runway heading 225
Runway 04R Runway length 9712 ft Runway width 148 ft
Runway elevation 10 ft Runway displaced threshold 0 ft Runway heading 45
Runway 22L Runway length 9712 ft Runway width 148 ft
Runway elevation 12 ft Runway displaced threshold 0 ft Runway heading 225

 AIRPORT FREQUENCIES
Type A/D Name NICE APP Frequency 124.175 MHZ
Type ATIS Name NICE ATIS Frequency 129.6 MHZ
Type GND Name NICE GND Frequency 121.775 MHZ
Type TWR Name NICE TWR Frequency 118.7 MHZ

 AIRPORT NEAR NAVIGATION AIDS
Type VOR-DME Name Nice Cote D Azur Frequency 109650 KHZ
Type VOR-DME Name Cagnes Sur Mer Frequency 109200 KHZ
Type NDB Name Nice Frequency 399 KHZ
Type VOR-DME Name Nice Frequency 112400 KHZ